Location: Auckland
(36.8670°S, 174.7670°E)
Time: 14:00:25
(UTC+12:00)

Daily predictions for brighter satellites

Satellite Brightness Start Highest point End
(mag) Time Altitude Azimuth Time Altitude Azimuth Time Altitude Azimuth
SL-16 R/B 3.5 17:40:07 10° NE 17:44:10 20° E 17:48:14 10° SE
USA 234 3.4 17:38:59 10° SE 17:45:34 67° NE 17:52:06 10° NW
Cosmos 1354 Rocket 4.0 17:40:18 10° SSW 17:45:37 68° ESE 17:50:49 10° NNE
Cosmos 1076 Rocket 4.1 17:42:29 10° NNE 17:46:24 35° E 17:50:23 10° SSE
CZ-4B R/B 1.5 17:46:36 10° NE 17:49:30 41° ESE 17:52:28 10° S
Cosmos 1606 3.8 17:46:34 10° SSE 17:49:39 23° ESE 17:52:41 10° NE
Atlas Centaur 2 3.2 17:46:07 10° WNW 17:50:39 39° N 17:56:18 10° ENE
IRIDIUM 104 4.4 17:45:31 10° S 17:50:47 62° E 17:55:58 10° NNE
Cosmos 2151 4.2 17:47:57 10° NE 17:51:07 21° E 17:54:19 10° SE
Meteor PRIRODA 3.7 17:52:52 10° SSE 17:56:40 89° E 18:00:23 10° NNW
IRIDIUM 114 4.3 17:54:38 10° S 17:59:57 77° E 18:05:11 10° N
Cosmos 1437 Rocket 3.3 17:56:44 10° S 18:00:15 33° ESE 18:03:43 10° NE
ERS-2 3.9 17:59:21 10° E 18:01:02 13° ESE 18:02:45 10° SE
Cosmos 2292 Rocket 4.4 17:58:11 10° NNE 18:02:01 34° E 18:06:59 10° SSE
Cosmos 1356 3.9 17:59:10 10° NNW 18:02:34 63° W 18:06:01 10° S
ATLAS CENTAUR Rocket 3.6 18:00:12 10° NW 18:03:45 20° N 18:06:37 10° ENE
Cosmos 1242 Rocket 4.1 18:02:57 10° SSE 18:05:30 17° ESE 18:08:01 10° ENE
ATLAS 3B R/B 3.5 17:58:33 10° NW 18:05:57 60° SW 18:13:17 10° SSE
Cosmos 2333 Rocket 4.5 18:02:04 10° WNW 18:06:16 21° SW 18:10:31 10° S
Cosmos 2058 3.7 18:02:47 10° NNW 18:06:51 57° W 18:11:00 10° S
deb Chang Zheng 4 3.6 18:02:41 10° SSE 18:07:03 63° ENE 18:11:22 10° N
Meteor 2-15 4.4 18:01:47 10° S 18:07:57 81° E 18:14:02 10° N
Envisat 3.4 18:03:53 10° S 18:09:00 68° WSW 18:14:04 10° NNW
IRIDIUM 103 4.4 18:03:45 10° S 18:09:04 87° W 18:14:19 10° N
USA 276 4.3 18:09:19 10° WSW 18:12:07 28° NW 18:14:55 10° NNE
Cosmos 2237 Rocket 2.5 18:06:31 10° NNW 18:12:10 72° WSW 18:17:55 10° SSE
H-2A R/B 4.4 18:10:33 10° S 18:14:06 35° WSW 18:17:35 10° NW
SJ 16-02 2.4 18:11:14 10° SSE 18:14:51 24° ESE 18:18:27 10° ENE
SMAP 3.4 18:11:01 10° SSE 18:15:33 43° E 18:19:59 10° N
Cosmos 1943 Rocket 3.6 18:17:28 10° SSE 18:21:02 17° SE 18:21:53 16° ESE
NOAA 6 4.0 18:16:44 10° SSE 18:21:55 66° ENE 18:27:00 10° N
H-2A R/B 3.7 18:21:39 18° E 18:22:06 19° E 18:24:52 10° NE
Cosmos 1689 Rocket 2.9 18:19:45 10° NE 18:22:15 28° ESE 18:24:49 10° SSE
Cosmos 1553 Rocket 4.1 18:17:44 10° S 18:23:44 52° E 18:29:38 10° NNE
CSL-04 DEB 4.4 18:20:56 10° N 18:24:53 80° WNW 18:28:53 10° SSW
Cosmos 1763 Rocket 4.5 18:21:28 10° NNE 18:25:50 27° E 18:28:30 18° ESE
Hubble Space Telescope 2.9 18:32:51 10° NNW 18:35:24 16° NNE 18:37:25 12° NE
Okean O Rocket 2.3 18:34:14 18° SE 18:36:58 34° E 18:41:03 10° NNE
PSLV R/B 3.8 18:34:13 10° S 18:38:01 79° WSW 18:41:44 10° NNW
Lacrosse 5 2.3 18:35:12 10° SSW 18:40:05 42° SE 18:42:25 26° E
Cosmos 2278 Rocket 2.7 18:34:57 10° SSW 18:40:36 63° WNW 18:46:12 10° N
Cosmos 2369 Rocket 4.2 18:41:13 10° SSE 18:41:49 11° SSE 18:41:49 11° SSE
Cosmos 1777 Rocket 4.2 18:39:13 10° SSW 18:44:31 75° WNW 18:49:44 10° N
MOS 1-B 4.3 18:40:34 10° SSE 18:46:27 76° ENE 18:52:16 10° N
BREEZE-M DEB (TANK) 3.7 18:44:19 10° NNW 18:46:55 31° NE 18:47:27 29° ENE
Cosmos 1933 3.6 18:43:26 10° S 18:47:27 45° E 18:51:23 10° NNE
CZ-2C R/B 3.4 18:44:19 10° N 18:49:52 58° W 18:55:26 10° SSW
CZ-4B R/B 3.2 18:45:25 10° SSE 18:50:40 56° E 18:55:54 10° N
Cosmos 468 Rocket 4.1 18:49:34 10° N 18:54:43 53° ENE 18:57:19 28° SE
Okean 3 Rocket 3.8 18:53:22 10° NNE 18:57:35 46° E 18:57:59 45° ESE
Meteor 2-3 Rocket 3.6 18:55:08 10° N 19:00:45 86° E 19:06:30 10° S
Cosmos 1655 Rocket 3.9 18:55:10 10° N 19:01:29 81° E 19:07:56 10° S
Cosmos 1766 Rocket 3.6 18:59:13 10° N 19:03:37 56° E 19:04:23 49° SE
H-2A R/B 3.6 19:06:48 18° NE 19:06:48 18° NE 19:08:22 10° NNE
PAYLOAD B 4.5 19:00:56 10° S 19:06:33 71° WSW 19:12:04 10° NNW
Cosmos 1461 3.2 19:02:46 10° SW 19:07:10 71° WNW 19:11:29 11° NNE
ATLAS CENTAUR R/B 3.1 19:16:53 10° SSW 19:18:32 21° S 19:18:32 21° S
Cosmos 1939 Rocket 3.9 19:17:52 13° S 19:21:26 48° WSW 19:25:26 10° NNW
Lacrosse 5 rocket 3.0 19:21:29 10° NNW 19:24:00 27° N 19:24:00 27° N
Cosmos 883 Rocket 4.3 19:21:03 10° S 19:27:19 73° E 19:33:34 10° NNE
SL-16 R/B 3.0 19:22:22 10° NW 19:27:49 49° WSW 19:31:59 17° S
USA 234 4.4 19:24:16 19° SSE 19:28:15 37° SSW 19:34:10 10° W
CZ-2C R/B 3.3 19:25:08 16° S 19:28:51 59° WSW 19:33:33 10° NNW
ERS-2 3.6 19:30:47 10° NNW 19:34:11 36° W 19:37:38 10° SSW
Atlas Centaur 2 4.0 19:34:43 10° WNW 19:39:23 25° NNW 19:41:59 20° NNE
Cosmos 2266 Rocket 4.5 19:34:04 10° NNW 19:40:00 57° W 19:46:06 10° S
Cosmos 2297 3.8 19:40:06 10° SSW 19:45:54 77° WNW 19:46:44 64° N
SJ 16-02 3.4 19:49:36 10° SW 19:53:21 27° W 19:57:03 10° NNW
Cosmos 1943 Rocket 3.1 19:59:38 10° SSW 20:03:29 43° SW 20:03:29 43° SW
Cosmos 1607 4.3 20:01:49 10° SW 20:07:09 61° WSW 20:07:09 61° WSW
Cosmos 2315 Rocket 4.5 20:06:41 10° SSW 20:12:54 58° W 20:19:06 10° N
Okean O Rocket 4.1 20:11:42 18° SW 20:13:02 20° WSW 20:16:17 10° WNW
USA 229 DEB 4.4 20:05:23 10° NNW 20:10:56 49° N 20:10:56 49° N
USA 229 4.4 20:05:29 10° NNW 20:10:58 48° N 20:10:58 48° N
Hubble Space Telescope 3.9 20:12:33 10° NW 20:12:44 11° NW 20:12:44 11° NW
Lacrosse 5 3.8 20:18:28 10° WSW 20:21:42 27° W 20:21:42 27° W
